STARLINK-11459 [DTC]

Last updated on Fri Jan 31 2025 00:02:04 GMT+0000 (Coordinated Universal Time)

1 62464U 24254C 25030.28409012 .00007560 00000+0 46201-4 0 9999 2 62464 43.0037 136.5814 0003963 264.1326 95.9093 15.77889881 5927
UTC large
Height (km)
Speed (km/s)
/
Latitude / Longitude
Inclination (degrees)
Orbital Period (minutes)
Azimuth
Elevation
Range (km)
Doppler Factor

Next 0 passes for location: London (51.5072 / 0.1276)

Sorry there are no passes over London.